Charlevoix, MI

9:36 PM EST on December 10, 2017 (GMT -0500)
Charlevoix Municipal

Weather History for KCVX - August, 2015

Change the Weather History Date:

Saturday, August 8, 2015

  Actual Average Record
Temperature  
Mean Temperature 66 °F -  
Max Temperature 73 °F 76 °F 95 °F (2001)
Min Temperature 60 °F 61 °F 51 °F (2002)
Cooling Degree Days 2    
Growing Degree Days 16 (Base 50)    
Moisture  
Dew Point 61 °F    
Average Humidity 84    
Maximum Humidity 99    
Minimum Humidity 60    
Precipitation  
Precipitation 0.00 in - - ()
Sea Level Pressure  
Sea Level Pressure 30.03 in    
Wind  
Wind Speed 3 mph (East)    
Max Wind Speed 10 mph    
Max Gust Speed -    
Visibility 10 miles    
Events      
Averages and records for this station are not official NWS values.
T = Trace of Precipitation, MM = Missing Value Source: NWS Daily Summary

Daily Weather History Graph

Daily Weather History Graph

Search for Another Location

Airport or City:

Trip Planner

Search our weather history database for the weather conditions in past years. The results will help you decide how hot, cold, wet, or windy it might be!

Date:

Astronomy

Aug. 08, 2015 Rise Set
Actual Time 6:33 AM EDT 8:59 PM EDT
Civil Twilight 6:00 AM EDT 9:32 PM EDT
Nautical Twilight 5:19 AM EDT 10:13 PM EDT
Astronomical Twilight 4:32 AM EDT 10:59 PM EDT
Moon 1:23 AM EDT (8/8) 4:12 PM EDT (8/8)
Length of Visible Light 15h 31m
Length of Day
14h 25m
Waning Crescent, 33% of the Moon is Illuminated
Aug 8
Waning Crescent
Aug 14
New
Aug 22
First Quarter
Aug 29
Full
Sep 5
Last Quarter

Hourly Weather History & Observations

Time (EDT) Temp. Dew Point Humidity Pressure Visibility Wind Dir Wind Speed Gust Speed Precip Events Conditions
12:14 AM 63.0 °F 61.7 °F 96% 29.99 in 10.0 mi Calm Calm - N/A   Clear
12:35 AM 62.8 °F 61.9 °F 97% 29.99 in 10.0 mi Calm Calm - N/A   Clear
12:55 AM 62.4 °F 61.2 °F 96% 29.99 in 10.0 mi Calm Calm - N/A   Clear
1:14 AM 62.6 °F 61.5 °F 96% 30.00 in 10.0 mi Calm Calm - N/A   Clear
1:35 AM 62.6 °F 61.7 °F 97% 30.00 in 10.0 mi Calm Calm - N/A   Clear
1:55 AM 62.2 °F 61.3 °F 97% 30.00 in 10.0 mi Calm Calm - N/A   Clear
2:14 AM 60.8 °F 60.3 °F 98% 30.00 in 10.0 mi Calm Calm - N/A   Mostly Cloudy
2:35 AM 60.8 °F 60.4 °F 99% 30.00 in 10.0 mi SSE 3.5 mph - N/A   Overcast
2:55 AM 61.7 °F 61.5 °F 99% 30.00 in 10.0 mi SE 4.6 mph - N/A   Mostly Cloudy
3:14 AM 62.2 °F 61.7 °F 98% 29.99 in 10.0 mi ESE 4.6 mph - N/A   Mostly Cloudy
3:35 AM 62.1 °F 60.6 °F 95% 29.99 in 10.0 mi SE 3.5 mph - N/A   Scattered Clouds
3:55 AM 61.3 °F 59.9 °F 95% 29.99 in 10.0 mi SE 3.5 mph - N/A   Scattered Clouds
4:15 AM 61.2 °F 59.7 °F 95% 29.99 in 10.0 mi SE 5.8 mph - N/A   Mostly Cloudy
4:34 AM 61.7 °F 59.5 °F 93% 29.99 in 10.0 mi Calm Calm - N/A   Overcast
4:55 AM 61.7 °F 59.5 °F 93% 30.01 in 10.0 mi Calm Calm - N/A   Overcast
5:15 AM 61.9 °F 59.4 °F 91% 30.00 in 10.0 mi SE 4.6 mph - N/A   Overcast
5:34 AM 62.1 °F 59.4 °F 91% 30.01 in 10.0 mi ESE 3.5 mph - N/A   Overcast
5:55 AM 61.9 °F 59.9 °F 93% 30.02 in 10.0 mi Calm Calm - N/A   Overcast
6:15 AM 61.9 °F 59.9 °F 93% 30.03 in 10.0 mi SE 3.5 mph - N/A   Overcast
6:34 AM 61.7 °F 59.9 °F 94% 30.04 in 10.0 mi SE 3.5 mph - N/A   Overcast
6:55 AM 62.1 °F 59.4 °F 91% 30.04 in 10.0 mi SSE 4.6 mph - N/A   Overcast
7:15 AM 62.6 °F 59.0 °F 88% 30.02 in 10.0 mi SE 5.8 mph - N/A   Overcast
7:34 AM 62.6 °F 59.0 °F 88% 30.02 in 10.0 mi SSE 4.6 mph - N/A   Overcast
7:55 AM 62.6 °F 59.4 °F 89% 30.03 in 10.0 mi ESE 3.5 mph - N/A   Overcast
8:15 AM 62.8 °F 59.4 °F 89% 30.04 in 10.0 mi SE 4.6 mph - N/A   Overcast
8:34 AM 63.5 °F 59.4 °F 86% 30.05 in 10.0 mi SSE 3.5 mph - N/A   Overcast
8:55 AM 63.5 °F 59.4 °F 86% 30.04 in 10.0 mi Calm Calm - N/A   Overcast
9:15 AM 64.4 °F 60.1 °F 86% 30.05 in 10.0 mi SE 4.6 mph - N/A   Overcast
9:34 AM 64.6 °F 60.4 °F 86% 30.05 in 10.0 mi South 3.5 mph - N/A   Overcast
9:55 AM 64.8 °F 60.3 °F 85% 30.05 in 10.0 mi SE 4.6 mph - N/A   Overcast
10:15 AM 65.7 °F 60.4 °F 83% 30.05 in 10.0 mi SE 4.6 mph - N/A   Overcast
10:34 AM 66.2 °F 60.6 °F 82% 30.05 in 10.0 mi SE 3.5 mph - N/A   Overcast
10:55 AM 66.9 °F 60.8 °F 81% 30.06 in 10.0 mi SE 3.5 mph - N/A   Overcast
11:15 AM 67.6 °F 60.1 °F 77% 30.06 in 10.0 mi SE 3.5 mph - N/A   Overcast
11:34 AM 70.0 °F 60.6 °F 72% 30.05 in 10.0 mi East 3.5 mph - N/A   Overcast
11:55 AM 71.1 °F 60.4 °F 69% 30.05 in 10.0 mi ENE 6.9 mph - N/A   Mostly Cloudy
12:15 PM 72.5 °F 59.5 °F 64% 30.05 in 10.0 mi NE 5.8 mph - N/A   Scattered Clouds
12:34 PM 72.7 °F 58.1 °F 60% 30.05 in 10.0 mi East 3.5 mph - N/A   Mostly Cloudy
12:55 PM 73.2 °F 59.7 °F 63% 30.05 in 10.0 mi NE 5.8 mph - N/A   Scattered Clouds
1:15 PM 72.9 °F 60.1 °F 64% 30.05 in 10.0 mi East 6.9 mph - N/A   Mostly Cloudy
1:34 PM 72.3 °F 60.8 °F 67% 30.05 in 10.0 mi North 9.2 mph - N/A   Mostly Cloudy
1:55 PM 70.9 °F 61.0 °F 71% 30.05 in 10.0 mi North 9.2 mph - N/A   Mostly Cloudy
2:15 PM 73.9 °F 61.5 °F 65% 30.05 in 10.0 mi NNW 9.2 mph - N/A   Scattered Clouds
2:34 PM 69.8 °F 61.0 °F 73% 30.05 in 10.0 mi North 6.9 mph - N/A   Mostly Cloudy
2:55 PM 70.5 °F 61.7 °F 74% 30.05 in 10.0 mi NNE 8.1 mph - N/A   Overcast
3:15 PM 70.0 °F 62.1 °F 76% 30.04 in 10.0 mi North 9.2 mph - N/A   Overcast
3:34 PM 71.8 °F 62.1 °F 71% 30.04 in 10.0 mi NNE 6.9 mph - N/A   Overcast
3:55 PM 72.0 °F 62.2 °F 71% 30.05 in 10.0 mi North 8.1 mph - N/A   Overcast
4:15 PM 73.0 °F 63.0 °F 71% 30.05 in 10.0 mi North 10.4 mph - N/A   Overcast
4:34 PM 73.0 °F 62.2 °F 69% 30.04 in 10.0 mi North 8.1 mph - N/A   Overcast
4:55 PM 73.6 °F 62.4 °F 68% 30.04 in 10.0 mi North 10.4 mph - N/A   Overcast
5:15 PM 72.5 °F 62.8 °F 71% 30.05 in 10.0 mi North 8.1 mph - N/A   Overcast
5:34 PM 71.2 °F 62.4 °F 74% 30.05 in 10.0 mi NNW 5.8 mph - N/A   Mostly Cloudy
5:55 PM 71.6 °F 62.2 °F 72% 30.04 in 10.0 mi NNW 4.6 mph - N/A   Mostly Cloudy
6:15 PM 71.2 °F 62.4 °F 74% 30.04 in 10.0 mi NNW 5.8 mph - N/A   Mostly Cloudy
6:34 PM 70.2 °F 63.3 °F 79% 30.04 in 10.0 mi NNW 4.6 mph - N/A   Mostly Cloudy
6:55 PM 71.1 °F 63.0 °F 75% 30.04 in 10.0 mi NNW 4.6 mph - N/A   Mostly Cloudy
7:15 PM 72.0 °F 61.9 °F 70% 30.04 in 10.0 mi NNW 3.5 mph - N/A   Mostly Cloudy
7:34 PM 71.1 °F 63.3 °F 76% 30.04 in 10.0 mi NNW 3.5 mph - N/A   Scattered Clouds
7:55 PM 70.7 °F 64.0 °F 79% 30.04 in 10.0 mi WNW 4.6 mph - N/A   Scattered Clouds
8:15 PM 69.8 °F 64.4 °F 83% 30.04 in 10.0 mi Calm Calm - N/A   Scattered Clouds
8:34 PM 69.1 °F 64.6 °F 86% 30.04 in 10.0 mi Calm Calm - N/A   Clear
8:55 PM 68.9 °F 65.5 °F 89% 30.04 in 10.0 mi Calm Calm - N/A   Clear
9:15 PM 67.8 °F 65.1 °F 91% 30.04 in 10.0 mi Calm Calm - N/A   Clear
9:35 PM 66.4 °F 64.4 °F 93% 30.04 in 10.0 mi Calm Calm - N/A   Clear
9:54 PM 65.3 °F 63.7 °F 94% 30.04 in 10.0 mi Calm Calm - N/A   Clear
10:14 PM 64.8 °F 63.7 °F 96% 30.03 in 10.0 mi Calm Calm - N/A   Clear
10:35 PM 64.2 °F 63.3 °F 97% 30.04 in 10.0 mi Calm Calm - N/A   Clear
10:55 PM 63.5 °F 62.6 °F 97% 30.03 in 10.0 mi Calm Calm - N/A   Clear
11:14 PM 63.3 °F 62.2 °F 96% 30.05 in 10.0 mi Calm Calm - N/A   Clear
11:35 PM 63.5 °F 62.6 °F 97% 30.04 in 10.0 mi Calm Calm - N/A   Clear
11:55 PM 63.7 °F 62.6 °F 96% 30.04 in 10.0 mi SE 3.5 mph - N/A   Clear